User: anonymous   Login
Location: Unspecified
(0.0000°N, 0.0000°E)
Time: 08:24:39
(UTC+02:00)
Language:

Iridium 15 - Orbit

View from above orbital plane
View from above orbital plane
View from above satellite
View from above satellite

Ground track
Ground track

The orbit data is extracted from the following two-line orbital elements,

1 24869U 97034A   17232.36853245  .00000111  00000-0  29805-4 0  9994
2 24869  86.4220 355.2222 0002528 103.3787 256.7693 14.38609951 53169
Epoch (UTC): 20 August 2017 08:50:41
Eccentricity: 0.0002528
inclination: 86.4220°
perigee height: 761 km
apogee height: 765 km
right ascension of ascending node: 355.2222°
argument of perigee: 103.3787°
revolutions per day: 14.38609951
mean anomaly at epoch: 256.7693°
orbit number at epoch: 5316

The dashed part of the orbit path shows where the satellite is in the earth's shadow,  

DLR